This is the latest recevied weather packets stored in our database for station/object K7FLA. If no packets are shown the sender has not sent any weather packets the latest 10 day(s).
| Time | Temp. | Humidity | Pressure | Rain* | Wind** | Luminosity | Snow |
|---|---|---|---|---|---|---|---|
| 1787973332 | 29.44° C | 40% | 1094.6 hPa | 0 mm | - | 0 W/m² | - |
| 1787973031 | 29.44° C | 40% | 1094.3 hPa | 0 mm | - | 0 W/m² | - |
| 1787972727 | 29.44° C | 39% | 1094.3 hPa | 0 mm | - | 0 W/m² | - |
| 1787972426 | 29.44° C | 39% | 1094.5 hPa | 0 mm | - | 0 W/m² | - |
| 1787972121 | 30° C | 40% | 1094.3 hPa | 0 mm | - | 0 W/m² | - |
| 1787971816 | 30° C | 36% | 1094.3 hPa | 0 mm | - | 0 W/m² | - |
| 1787971512 | 30.56° C | 36% | 1094.5 hPa | 0 mm | - | 0 W/m² | - |
| 1787971208 | 30.56° C | 35% | 1094.3 hPa | 0 mm | - | 0 W/m² | - |
| 1787970907 | 31.11° C | 34% | 1094.5 hPa | 0 mm | - | 0 W/m² | - |
| 1787970602 | 31.67° C | 34% | 1094.6 hPa | 0 mm | - | 1 W/m² | - |
| 1787970297 | 31.67° C | 32% | 1094.3 hPa | 0 mm | - | 1 W/m² | - |
| 1787969994 | 31.67° C | 32% | 1094.2 hPa | 0 mm | - | 3 W/m² | - |
| 1787969695 | 32.22° C | 33% | 1094.2 hPa | 0 mm | - | 5 W/m² | - |
| 1787969394 | 32.22° C | 32% | 1094.2 hPa | 0 mm | - | 8 W/m² | - |
| 1787969094 | 32.22° C | 31% | 1094.1 hPa | 0 mm | - | 10 W/m² | - |
| 1787968788 | 32.78° C | 31% | 1094.3 hPa | 0 mm | - | 12 W/m² | - |
| 1787968488 | 32.78° C | 31% | 1094.3 hPa | 0 mm | - | 15 W/m² | - |
| 1787968183 | 32.78° C | 30% | 1094.2 hPa | 0 mm | - | 17 W/m² | - |
| 1787967883 | 32.78° C | 30% | 1094.5 hPa | 0 mm | - | 19 W/m² | - |
| 1787967579 | 33.33° C | 30% | 1094.3 hPa | 0 mm | - | 21 W/m² | - |
| 1787967274 | 33.33° C | 30% | 1094.2 hPa | 0 mm | - | 23 W/m² | - |
| 1787966971 | 33.89° C | 30% | 1094.2 hPa | 0 mm | - | 28 W/m² | - |
| 1787966668 | 33.89° C | 29% | 1094.1 hPa | 0 mm | - | 38 W/m² | - |
| 1787966366 | 33.89° C | 29% | 1094.2 hPa | 0 mm | - | 45 W/m² | - |
| 1787966061 | 34.44° C | 29% | 1094.1 hPa | 0 mm | - | 51 W/m² | - |
* Rain latest hour (hover to see other rain measurements)
** Current wind speed in m/s (hover to see current wind gust speed)